When you browse on this site, cookies collect data to enhance your experience and personalize the content and advertising you see.
Visit our Privacy Policy to learn more. By continuing to use the site, you agree to this use of cookies and data.
  • In Czech Republic
  • List of Countries
  • For 7 days
  • Water Temperature
  • Weather Map
  • Weather Widgets
  • user-avatar
    Login

    Hourly Weather Szeged

    Today, 30 March, Monday

    Time Temperature Precipitation Wind Pressure Humidity
    00:00 +8°C° 0 mm 4 mps 752 mmHg 69%
    01:00 +8°C° 0 mm 5 mps 752 mmHg 66%
    02:00 +8°C° 0 mm 5 mps 753 mmHg 69%
    03:00 +7°C° 0 mm 4 mps 753 mmHg 72%
    04:00 +7°C° 0 mm 4 mps 753 mmHg 74%
    05:00 +7°C° 0 mm 4 mps 753 mmHg 74%
    06:00 +7°C° 0 mm 5 mps 754 mmHg 74%
    07:00 +7°C° 0 mm 5 mps 754 mmHg 73%
    08:00 +7°C° 0 mm 5 mps 755 mmHg 72%
    09:00 +7°C° 0 mm 5 mps 755 mmHg 71%
    10:00 +7°C° 0 mm 5 mps 755 mmHg 70%
    11:00 +6°C° 0 mm 5 mps 756 mmHg 72%
    12:00 +6°C° 0 mm 5 mps 756 mmHg 75%
    13:00 +5°C° 0 mm 5 mps 756 mmHg 77%
    14:00 +6°C° 0 mm 5 mps 756 mmHg 72%
    15:00 +6°C° 0 mm 4 mps 756 mmHg 66%
    16:00 +7°C° 0 mm 4 mps 756 mmHg 61%
    17:00 +6°C° 0 mm 4 mps 756 mmHg 61%
    18:00 +6°C° 0 mm 4 mps 757 mmHg 62%
    19:00 +5°C° 0 mm 4 mps 757 mmHg 62%
    20:00 +4°C° 0 mm 4 mps 757 mmHg 58%
    21:00 +2°C° 0 mm 5 mps 758 mmHg 53%
    22:00 +2°C° 0 mm 5 mps 758 mmHg 48%
    23:00 +1°C° 0 mm 5 mps 758 mmHg 48%

    Tomorrow, 31 March, Tuesday

    Time Temperature Precipitation Wind Pressure Humidity
    00:00 0°C° 0 mm 5 mps 759 mmHg 48%
    01:00 0°C° 0 mm 5 mps 759 mmHg 48%
    02:00 -1°C° 0 mm 4 mps 759 mmHg 49%
    03:00 -1°C° 0 mm 4 mps 759 mmHg 50%
    04:00 -2°C° 0 mm 4 mps 759 mmHg 52%
    05:00 -1°C° 0 mm 4 mps 759 mmHg 51%
    06:00 -1°C° 0 mm 5 mps 760 mmHg 51%
    07:00 0°C° 0 mm 5 mps 760 mmHg 51%
    08:00 +1°C° 0 mm 5 mps 760 mmHg 47%
    09:00 +2°C° 0 mm 6 mps 760 mmHg 43%
    10:00 +4°C° 0 mm 6 mps 760 mmHg 40%
    11:00 +5°C° 0 mm 6 mps 760 mmHg 38%
    12:00 +5°C° 0 mm 6 mps 760 mmHg 37%
    13:00 +7°C° 0 mm 6 mps 759 mmHg 35%
    14:00 +7°C° 0 mm 6 mps 759 mmHg 35%
    15:00 +7°C° 0 mm 6 mps 759 mmHg 35%
    16:00 +7°C° 0 mm 6 mps 758 mmHg 36%
    17:00 +5°C° 0 mm 5 mps 759 mmHg 40%
    18:00 +4°C° 0 mm 4 mps 759 mmHg 45%
    19:00 +2°C° 0 mm 3 mps 759 mmHg 49%
    20:00 +2°C° 0 mm 3 mps 759 mmHg 51%
    21:00 +1°C° 0 mm 3 mps 760 mmHg 52%
    22:00 0°C° 0 mm 4 mps 760 mmHg 53%
    23:00 -1°C° 0 mm 4 mps 760 mmHg 54%

    Day after tomorrow, 1 April, Wednesday

    Time Temperature Precipitation Wind Pressure Humidity
    00:00 -1°C° 0 mm 3 mps 760 mmHg 54%
    01:00 -1°C° 0 mm 3 mps 760 mmHg 55%
    02:00 -3°C° 0 mm 4 mps 760 mmHg 55%
    03:00 -3°C° 0 mm 4 mps 760 mmHg 54%
    04:00 -3°C° 0 mm 4 mps 760 mmHg 54%
    05:00 -2°C° 0 mm 4 mps 760 mmHg 53%
    06:00 -1°C° 0 mm 5 mps 760 mmHg 51%
    07:00 -1°C° 0 mm 5 mps 760 mmHg 50%
    08:00 +1°C° 0 mm 5 mps 760 mmHg 46%
    09:00 +4°C° 0 mm 4 mps 760 mmHg 42%
    10:00 +5°C° 0 mm 4 mps 760 mmHg 37%
    11:00 +6°C° 0 mm 4 mps 760 mmHg 35%
    12:00 +8°C° 0 mm 3 mps 759 mmHg 33%
    13:00 +8°C° 0 mm 3 mps 759 mmHg 31%
    14:00 +8°C° 0 mm 2 mps 759 mmHg 31%
    15:00 +8°C° 0 mm 2 mps 758 mmHg 30%
    16:00 +8°C° 0 mm 2 mps 758 mmHg 30%
    17:00 +7°C° 0 mm 2 mps 758 mmHg 33%
    18:00 +6°C° 0 mm 1 mps 758 mmHg 37%
    19:00 +5°C° 0 mm 1 mps 758 mmHg 41%
    20:00 +4°C° 0 mm 1 mps 758 mmHg 42%
    21:00 +4°C° 0 mm 1 mps 758 mmHg 43%
    22:00 +2°C° 0 mm 0 mps 758 mmHg 44%
    23:00 +2°C° 0 mm 0 mps 758 mmHg 44%

    2 April, Thursday

    Time Temperature Precipitation Wind Pressure Humidity
    00:00 +1°C° 0 mm 0 mps 758 mmHg 45%
    01:00 +1°C° 0 mm 0 mps 757 mmHg 45%
    02:00 +1°C° 0 mm 0 mps 757 mmHg 46%
    03:00 +1°C° 0 mm 0 mps 757 mmHg 47%
    04:00 +1°C° 0 mm 1 mps 757 mmHg 48%
    05:00 +2°C° 0 mm 1 mps 757 mmHg 46%
    06:00 +3°C° 0 mm 1 mps 757 mmHg 45%
    07:00 +4°C° 0 mm 1 mps 757 mmHg 44%
    08:00 +6°C° 0 mm 1 mps 757 mmHg 40%
    09:00 +8°C° 0 mm 1 mps 757 mmHg 37%
    10:00 +9°C° 0 mm 1 mps 756 mmHg 33%
    11:00 +10°C° 0 mm 1 mps 756 mmHg 33%
    12:00 +10°C° 0 mm 2 mps 756 mmHg 32%
    13:00 +12°C° 0 mm 2 mps 755 mmHg 32%
    14:00 +12°C° 0 mm 1 mps 755 mmHg 33%
    15:00 +12°C° 0 mm 1 mps 754 mmHg 33%
    16:00 +12°C° 0 mm 1 mps 754 mmHg 34%
    17:00 +10°C° 0 mm 1 mps 753 mmHg 38%
    18:00 +9°C° 0 mm 1 mps 753 mmHg 43%
    19:00 +7°C° 0 mm 1 mps 753 mmHg 48%
    20:00 +7°C° 0 mm 1 mps 753 mmHg 50%
    21:00 +6°C° 0 mm 1 mps 753 mmHg 53%
    22:00 +5°C° 0 mm 2 mps 753 mmHg 56%
    23:00 +4°C° 0 mm 2 mps 753 mmHg 58%

    3 April, Friday

    Time Temperature Precipitation Wind Pressure Humidity
    00:00 +4°C° 0 mm 2 mps 753 mmHg 61%
    01:00 +4°C° 0 mm 2 mps 753 mmHg 63%
    02:00 +3°C° 0 mm 2 mps 753 mmHg 65%
    03:00 +3°C° 0 mm 2 mps 753 mmHg 67%
    04:00 +3°C° 0 mm 2 mps 752 mmHg 68%
    05:00 +3°C° 0 mm 2 mps 753 mmHg 67%
    06:00 +4°C° 0 mm 2 mps 753 mmHg 66%
    07:00 +4°C° 0 mm 3 mps 753 mmHg 65%
    08:00 +7°C° 0 mm 3 mps 753 mmHg 59%
    09:00 +9°C° 0 mm 3 mps 753 mmHg 53%
    10:00 +11°C° 0 mm 3 mps 753 mmHg 47%
    11:00 +12°C° 0 mm 3 mps 753 mmHg 44%
    12:00 +13°C° 0 mm 3 mps 753 mmHg 41%
    13:00 +14°C° 0 mm 3 mps 753 mmHg 38%
    14:00 +14°C° 0 mm 4 mps 753 mmHg 40%
    15:00 +14°C° 0 mm 4 mps 753 mmHg 43%
    16:00 +14°C° 0 mm 5 mps 753 mmHg 45%
    17:00 +12°C° 0 mm 4 mps 753 mmHg 50%
    18:00 +10°C° 0 mm 4 mps 754 mmHg 55%
    19:00 +9°C° 0 mm 3 mps 754 mmHg 60%
    20:00 +8°C° 0 mm 3 mps 755 mmHg 63%
    21:00 +8°C° 0 mm 3 mps 756 mmHg 66%
    22:00 +6°C° 0 mm 4 mps 757 mmHg 69%
    23:00 +6°C° 0 mm 4 mps 758 mmHg 70%

    4 April, Saturday

    Time Temperature Precipitation Wind Pressure Humidity
    00:00 +5°C° 0 mm 4 mps 758 mmHg 72%
    01:00 +5°C° 0 mm 4 mps 759 mmHg 74%
    02:00 +4°C° 0 mm 4 mps 759 mmHg 75%
    03:00 +3°C° 0 mm 3 mps 760 mmHg 75%
    04:00 +2°C° 0 mm 3 mps 760 mmHg 75%
    05:00 +3°C° 0 mm 3 mps 761 mmHg 71%
    06:00 +3°C° 0 mm 3 mps 762 mmHg 67%
    07:00 +4°C° 0 mm 3 mps 763 mmHg 63%
    08:00 +7°C° 0 mm 3 mps 763 mmHg 58%
    09:00 +8°C° 0 mm 3 mps 763 mmHg 52%
    10:00 +9°C° 0 mm 3 mps 764 mmHg 47%
    11:00 +10°C° 0 mm 3 mps 764 mmHg 42%
    12:00 +11°C° 0 mm 3 mps 764 mmHg 38%
    13:00 +12°C° 0 mm 2 mps 764 mmHg 33%
    14:00 +12°C° 0 mm 2 mps 764 mmHg 33%
    15:00 +12°C° 0 mm 2 mps 764 mmHg 33%
    16:00 +12°C° 0 mm 2 mps 764 mmHg 33%
    17:00 +10°C° 0 mm 2 mps 764 mmHg 38%
    18:00 +8°C° 0 mm 2 mps 765 mmHg 43%
    19:00 +7°C° 0 mm 2 mps 765 mmHg 48%
    20:00 +6°C° 0 mm 2 mps 766 mmHg 50%
    21:00 +5°C° 0 mm 2 mps 766 mmHg 53%
    22:00 +5°C° 0 mm 2 mps 767 mmHg 55%
    23:00 +4°C° 0 mm 2 mps 767 mmHg 54%
    Show more